TimeEST,TemperatureF,Dew PointF,Humidity,Sea Level PressureIn,VisibilityMPH,Wind Direction,Wind SpeedMPH,Gust SpeedMPH,PrecipitationIn,Events,Conditions,WindDirDegrees,DateUTC
12:11 AM,41.0,39.9,96,30.27,1.8,SSW,4.6,-,N/A,,Overcast,200,2014-01-11 05:11:00
12:53 AM,41.0,39.2,93,30.25,0.8,SSW,6.9,-,0.00,,Mist,200,2014-01-11 05:53:00
12:56 AM,41.0,39.9,96,30.26,0.8,SSW,6.9,-,0.00,,Mist,200,2014-01-11 05:56:00
1:56 AM,42.1,41.0,96,30.25,0.8,SSW,8.1,-,0.01,,Mist,200,2014-01-11 06:56:00
2:13 AM,44.1,43.0,96,30.24,1.0,SSW,9.2,-,N/A,,Mist,200,2014-01-11 07:13:00
2:38 AM,44.1,43.0,96,30.22,0.8,South,8.1,-,N/A,,Mist,190,2014-01-11 07:38:00
2:56 AM,44.1,43.0,96,30.22,0.8,South,8.1,-,N/A,,Mist,190,2014-01-11 07:56:00
3:08 AM,44.1,43.0,96,30.21,1.0,SSW,9.2,-,0.00,Rain,Light Rain,200,2014-01-11 08:08:00
3:44 AM,43.0,42.1,97,30.19,0.8,South,6.9,-,0.00,,Mist,180,2014-01-11 08:44:00
3:56 AM,44.1,43.0,96,30.18,0.8,South,8.1,-,0.00,,Mist,180,2014-01-11 08:56:00
4:56 AM,43.0,42.1,97,30.16,0.5,South,6.9,-,N/A,Fog,Fog,180,2014-01-11 09:56:00
5:18 AM,44.1,43.0,96,30.13,2.0,South,6.9,-,N/A,,Overcast,170,2014-01-11 10:18:00
5:34 AM,44.1,43.0,96,30.13,1.5,South,8.1,-,N/A,,Overcast,170,2014-01-11 10:34:00
5:44 AM,44.1,43.0,96,30.12,3.0,South,5.8,-,0.00,Rain,Light Rain,170,2014-01-11 10:44:00
5:56 AM,44.1,43.0,96,30.12,1.0,South,8.1,-,0.00,,Overcast,180,2014-01-11 10:56:00
6:37 AM,46.0,45.0,96,30.09,10.0,South,9.2,-,0.00,,Overcast,180,2014-01-11 11:37:00
6:56 AM,48.0,45.0,89,30.09,10.0,South,11.5,19.6,0.00,,Overcast,170,2014-01-11 11:56:00
7:56 AM,48.0,45.0,89,30.06,10.0,South,12.7,20.7,0.00,,Overcast,180,2014-01-11 12:56:00
8:56 AM,46.9,45.0,93,30.02,10.0,South,9.2,19.6,N/A,,Overcast,170,2014-01-11 13:56:00
9:56 AM,50.0,46.9,89,29.96,10.0,South,16.1,25.3,N/A,,Mostly Cloudy,180,2014-01-11 14:56:00
10:04 AM,50.0,48.0,93,29.96,9.0,South,17.3,27.6,0.00,Rain,Light Rain,180,2014-01-11 15:04:00
10:14 AM,50.0,48.0,93,29.95,9.0,South,11.5,27.6,0.00,,Mostly Cloudy,180,2014-01-11 15:14:00
10:27 AM,48.9,48.0,97,29.94,5.0,South,15.0,24.2,0.00,,Overcast,180,2014-01-11 15:27:00
10:56 AM,51.1,48.9,92,29.91,9.0,South,13.8,23.0,0.00,,Overcast,190,2014-01-11 15:56:00
11:13 AM,50.0,48.0,93,29.89,9.0,South,16.1,28.8,N/A,,Overcast,190,2014-01-11 16:13:00
11:56 AM,48.9,46.9,93,29.84,8.0,SSW,18.4,27.6,N/A,,Overcast,200,2014-01-11 16:56:00
12:46 PM,48.0,46.0,93,29.79,6.0,SSW,13.8,23.0,0.00,,Overcast,200,2014-01-11 17:46:00
12:56 PM,46.9,46.0,97,29.79,5.0,SSW,15.0,21.9,0.00,,Overcast,200,2014-01-11 17:56:00
1:56 PM,48.0,46.9,96,29.73,1.5,South,18.4,28.8,0.02,Rain,Light Rain,190,2014-01-11 18:56:00
2:12 PM,48.9,48.0,97,29.71,0.8,South,20.7,28.8,0.01,Rain,Light Rain,190,2014-01-11 19:12:00
2:22 PM,48.9,48.0,97,29.70,0.2,South,19.6,26.5,0.02,Fog-Rain,Light Rain,190,2014-01-11 19:22:00
2:46 PM,50.0,48.9,96,29.68,1.5,South,20.7,34.5,0.08,Rain,Heavy Rain,190,2014-01-11 19:46:00
2:56 PM,53.1,52.0,96,29.68,1.5,SSW,15.0,27.6,0.11,Rain,Light Rain,200,2014-01-11 19:56:00
3:19 PM,52.0,51.1,97,29.66,0.5,South,13.8,26.5,0.03,Fog-Rain,Light Rain,190,2014-01-11 20:19:00
3:22 PM,51.1,50.0,96,29.65,0.2,South,15.0,26.5,0.03,Fog-Rain,Light Rain,190,2014-01-11 20:22:00
3:56 PM,51.1,51.1,100,29.61,0.2,South,18.4,29.9,0.04,Fog-Rain,Light Rain,190,2014-01-11 20:56:00
4:26 PM,50.0,50.0,100,29.59,0.8,South,17.3,31.1,0.15,Rain,Heavy Rain,190,2014-01-11 21:26:00
4:40 PM,51.1,50.0,96,29.57,0.2,South,17.3,26.5,0.15,Fog,Fog,190,2014-01-11 21:40:00
4:56 PM,48.9,48.9,100,29.56,0.2,South,20.7,31.1,0.15,Fog,Fog,190,2014-01-11 21:56:00
5:56 PM,48.9,48.0,97,29.51,0.2,South,18.4,31.1,0.01,Fog,Fog,190,2014-01-11 22:56:00
6:56 PM,50.0,48.9,96,29.45,0.2,South,18.4,28.8,N/A,Fog,Fog,190,2014-01-11 23:56:00
7:54 PM,51.8,51.8,100,29.39,0.8,South,21.9,38.0,0.04,Rain,Heavy Rain,190,2014-01-12 00:54:00
7:56 PM,52.0,51.1,97,29.40,0.5,South,21.9,38.0,0.04,Fog-Rain,Rain,190,2014-01-12 00:56:00
8:13 PM,52.0,52.0,100,29.36,0.2,South,23.0,36.8,0.01,Fog,Fog,190,2014-01-12 01:13:00
8:51 PM,51.8,51.8,100,29.42,1.0,SW,28.8,38.0,0.19,Rain,Heavy Rain,220,2014-01-12 01:51:00
8:56 PM,54.0,53.1,97,29.42,1.8,SSW,23.0,38.0,0.22,Rain,Heavy Rain,210,2014-01-12 01:56:00
9:52 PM,51.8,51.8,100,29.42,9.0,South,6.9,-,0.04,Rain,Light Rain,180,2014-01-12 02:52:00
9:56 PM,52.0,51.1,97,29.42,8.0,South,8.1,-,0.04,Rain,Light Rain,190,2014-01-12 02:56:00
10:56 PM,50.0,48.9,96,29.40,10.0,SSW,9.2,-,0.03,Rain,Light Rain,200,2014-01-12 03:56:00
11:06 PM,48.9,48.0,97,29.39,4.0,South,6.9,-,0.00,,Overcast,180,2014-01-12 04:06:00
11:09 PM,48.0,48.0,100,29.39,2.0,South,9.2,-,0.00,,Overcast,190,2014-01-12 04:09:00
11:14 PM,46.9,46.0,97,29.39,0.8,South,6.9,-,0.00,,Overcast,180,2014-01-12 04:14:00
11:22 PM,45.0,44.1,97,29.38,0.5,South,6.9,-,0.00,Fog,Fog,190,2014-01-12 04:22:00
11:29 PM,45.0,44.1,97,29.37,0.5,South,8.1,-,0.01,Fog-Rain,Light Rain,190,2014-01-12 04:29:00
11:56 PM,46.9,46.0,97,29.35,0.8,South,11.5,-,0.01,Rain,Light Rain,180,2014-01-12 04:56:00